Powrót do katalogu

COSMOS 2015

AktywnyNawigacjaLEO
NORAD 19909·PAYLOAD·🇷🇺 Russia

Wystrzelony Mar 24, 1989 z Plesetsk Cosmodrome

Loading…

Następne Przeloty (najbliższe 24 godziny)

TLE

ŚwieżeSource: Space-Track

Epoka: Sep 14, 2026, 15:43 UTC

1 19909U 89025H   26257.65499840 -.00000019  00000-0 -25957-4 0  9993
2 19909  74.0126  27.0371 0024977  94.5127 277.6147 12.44067752701917

Śledź COSMOS 2015 w czasie rzeczywistym z AllMySat

Download on the App Store